When you browse on this site, cookies collect data to enhance your experience and personalize the content and advertising you see.
Visit our Privacy Policy to learn more. By continuing to use the site, you agree to this use of cookies and data.
  • In Lithuania
  • List of Countries
  • For 7 days
  • Water Temperature
  • Weather Map
  • Weather Widgets
  • user-avatar
    Login

    Hourly Weather Konstantyna

    Today, 5 April, Sunday

    Time Temperature Precipitation Wind Pressure Humidity
    00:00 +5°C° 0 mm 0 mps 711 mmHg 93%
    01:00 +5°C° 0 mm 0 mps 710 mmHg 93%
    02:00 +6°C° 0 mm 1 mps 710 mmHg 92%
    03:00 +6°C° 0 mm 1 mps 709 mmHg 92%
    04:00 +6°C° 0 mm 1 mps 710 mmHg 91%
    05:00 +7°C° 0 mm 1 mps 710 mmHg 90%
    06:00 +6°C° 0 mm 0 mps 710 mmHg 89%
    07:00 +9°C° 0 mm 0 mps 711 mmHg 80%
    08:00 +12°C° 0 mm 1 mps 711 mmHg 70%
    09:00 +15°C° 0 mm 1 mps 711 mmHg 60%
    10:00 +16°C° 0 mm 1 mps 711 mmHg 53%
    11:00 +18°C° 0 mm 1 mps 711 mmHg 46%
    12:00 +18°C° 0 mm 2 mps 711 mmHg 40%
    13:00 +18°C° 0 mm 2 mps 711 mmHg 43%
    14:00 +18°C° 0 mm 3 mps 711 mmHg 46%
    15:00 +18°C° 0 mm 3 mps 710 mmHg 49%
    16:00 +14°C° 0 mm 3 mps 710 mmHg 60%
    17:00 +13°C° 0 mm 2 mps 710 mmHg 72%
    18:00 +10°C° 0 mm 2 mps 710 mmHg 83%
    19:00 +10°C° 0 mm 1 mps 710 mmHg 84%
    20:00 +9°C° 0 mm 1 mps 710 mmHg 86%
    21:00 +7°C° 0 mm 0 mps 711 mmHg 87%
    22:00 +7°C° 0 mm 0 mps 711 mmHg 86%
    23:00 +7°C° 0 mm 0 mps 711 mmHg 85%

    Tomorrow, 6 April, Monday

    Time Temperature Precipitation Wind Pressure Humidity
    00:00 +7°C° 0 mm 0 mps 711 mmHg 84%
    01:00 +7°C° 0 mm 0 mps 711 mmHg 83%
    02:00 +6°C° 0 mm 0 mps 710 mmHg 82%
    03:00 +6°C° 0 mm 0 mps 710 mmHg 81%
    04:00 +7°C° 0 mm 0 mps 710 mmHg 80%
    05:00 +7°C° 0 mm 0 mps 711 mmHg 79%
    06:00 +8°C° 0 mm 0 mps 711 mmHg 78%
    07:00 +10°C° 0 mm 0 mps 712 mmHg 71%
    08:00 +13°C° 0 mm 0 mps 713 mmHg 64%
    09:00 +15°C° 0 mm 0 mps 713 mmHg 56%
    10:00 +18°C° 0 mm 1 mps 713 mmHg 53%
    11:00 +18°C° 0 mm 2 mps 713 mmHg 50%
    12:00 +19°C° 0 mm 2 mps 713 mmHg 47%
    13:00 +19°C° 0 mm 3 mps 713 mmHg 50%
    14:00 +19°C° 0 mm 3 mps 713 mmHg 52%
    15:00 +19°C° 0 mm 4 mps 713 mmHg 55%
    16:00 +16°C° 0 mm 3 mps 713 mmHg 65%
    17:00 +13°C° 0 mm 3 mps 713 mmHg 75%
    18:00 +12°C° 0 mm 2 mps 713 mmHg 84%
    19:00 +11°C° 0 mm 1 mps 713 mmHg 86%
    20:00 +10°C° 0 mm 1 mps 714 mmHg 87%
    21:00 +8°C° 0 mm 0 mps 714 mmHg 89%
    22:00 +8°C° 0 mm 0 mps 714 mmHg 88%
    23:00 +8°C° 0 mm 0 mps 714 mmHg 87%

    Day after tomorrow, 7 April, Tuesday

    Time Temperature Precipitation Wind Pressure Humidity
    00:00 +7°C° 0 mm 0 mps 714 mmHg 86%
    01:00 +7°C° 0 mm 0 mps 713 mmHg 85%
    02:00 +7°C° 0 mm 0 mps 713 mmHg 84%
    03:00 +7°C° 0 mm 0 mps 713 mmHg 83%
    04:00 +8°C° 0 mm 0 mps 713 mmHg 82%
    05:00 +8°C° 0 mm 0 mps 713 mmHg 81%
    06:00 +9°C° 0 mm 0 mps 714 mmHg 81%
    07:00 +11°C° 0 mm 0 mps 714 mmHg 75%
    08:00 +13°C° 0 mm 0 mps 715 mmHg 68%
    09:00 +15°C° 0 mm 0 mps 715 mmHg 62%
    10:00 +18°C° 0 mm 1 mps 715 mmHg 60%
    11:00 +19°C° 0 mm 1 mps 715 mmHg 57%
    12:00 +19°C° 0 mm 2 mps 715 mmHg 54%
    13:00 +19°C° 0.2 mm 2 mps 715 mmHg 58%
    14:00 +18°C° 0.2 mm 3 mps 714 mmHg 62%
    15:00 +18°C° 0.2 mm 3 mps 714 mmHg 65%
    16:00 +16°C° 0.2 mm 3 mps 714 mmHg 73%
    17:00 +15°C° 0.2 mm 2 mps 714 mmHg 81%
    18:00 +13°C° 0.2 mm 2 mps 713 mmHg 89%
    19:00 +12°C° 0 mm 1 mps 714 mmHg 91%
    20:00 +11°C° 0 mm 1 mps 714 mmHg 93%
    21:00 +9°C° 0 mm 0 mps 714 mmHg 94%
    22:00 +9°C° 0 mm 0 mps 714 mmHg 94%
    23:00 +9°C° 0 mm 0 mps 714 mmHg 93%

    8 April, Wednesday

    Time Temperature Precipitation Wind Pressure Humidity
    00:00 +9°C° 0 mm 0 mps 714 mmHg 93%
    01:00 +9°C° 0.1 mm 0 mps 714 mmHg 93%
    02:00 +8°C° 0.1 mm 0 mps 713 mmHg 93%
    03:00 +8°C° 0.1 mm 0 mps 713 mmHg 93%
    04:00 +9°C° 0.1 mm 0 mps 713 mmHg 92%
    05:00 +10°C° 0.1 mm 0 mps 714 mmHg 90%
    06:00 +11°C° 0.1 mm 0 mps 714 mmHg 89%
    07:00 +13°C° 0.1 mm 1 mps 714 mmHg 83%
    08:00 +14°C° 0.1 mm 1 mps 714 mmHg 77%
    09:00 +15°C° 0.1 mm 1 mps 715 mmHg 71%
    10:00 +16°C° 0.2 mm 2 mps 714 mmHg 66%
    11:00 +17°C° 0.2 mm 3 mps 714 mmHg 62%
    12:00 +18°C° 0.2 mm 3 mps 714 mmHg 57%
    13:00 +18°C° 0.2 mm 3 mps 714 mmHg 60%
    14:00 +18°C° 0.2 mm 4 mps 714 mmHg 63%
    15:00 +17°C° 0.2 mm 4 mps 713 mmHg 66%
    16:00 +16°C° 0.1 mm 3 mps 713 mmHg 74%
    17:00 +13°C° 0.1 mm 3 mps 713 mmHg 82%
    18:00 +12°C° 0.1 mm 2 mps 713 mmHg 90%
    19:00 +10°C° 0 mm 2 mps 713 mmHg 92%
    20:00 +11°C° 0 mm 1 mps 713 mmHg 94%
    21:00 +10°C° 0 mm 1 mps 714 mmHg 96%
    22:00 +9°C° 0 mm 1 mps 713 mmHg 96%
    23:00 +8°C° 0 mm 0 mps 713 mmHg 95%

    9 April, Thursday

    Time Temperature Precipitation Wind Pressure Humidity
    00:00 +8°C° 0 mm 0 mps 713 mmHg 95%
    01:00 +7°C° 0 mm 0 mps 713 mmHg 95%
    02:00 +7°C° 0 mm 0 mps 712 mmHg 94%
    03:00 +7°C° 0 mm 0 mps 712 mmHg 94%
    04:00 +8°C° 0 mm 0 mps 712 mmHg 93%
    05:00 +8°C° 0 mm 0 mps 713 mmHg 92%
    06:00 +9°C° 0 mm 0 mps 713 mmHg 91%
    07:00 +11°C° 0 mm 0 mps 713 mmHg 83%
    08:00 +13°C° 0 mm 1 mps 713 mmHg 76%
    09:00 +15°C° 0 mm 1 mps 714 mmHg 68%
    10:00 +16°C° 0.1 mm 1 mps 714 mmHg 65%
    11:00 +17°C° 0.1 mm 2 mps 714 mmHg 61%
    12:00 +18°C° 0.1 mm 2 mps 714 mmHg 58%
    13:00 +18°C° 0 mm 3 mps 713 mmHg 60%
    14:00 +18°C° 0 mm 3 mps 713 mmHg 62%
    15:00 +18°C° 0 mm 4 mps 713 mmHg 64%
    16:00 +16°C° 0 mm 3 mps 712 mmHg 73%
    17:00 +13°C° 0 mm 3 mps 712 mmHg 81%
    18:00 +13°C° 0 mm 2 mps 712 mmHg 89%
    19:00 +12°C° 0 mm 2 mps 712 mmHg 90%
    20:00 +11°C° 0 mm 1 mps 712 mmHg 91%
    21:00 +10°C° 0 mm 1 mps 713 mmHg 93%
    22:00 +10°C° 0 mm 1 mps 712 mmHg 92%
    23:00 +9°C° 0 mm 1 mps 712 mmHg 91%

    10 April, Friday

    Time Temperature Precipitation Wind Pressure Humidity
    00:00 +8°C° 0 mm 0 mps 712 mmHg 91%
    01:00 +8°C° 0 mm 0 mps 712 mmHg 90%
    02:00 +8°C° 0 mm 0 mps 712 mmHg 90%
    03:00 +8°C° 0 mm 0 mps 711 mmHg 90%
    04:00 +8°C° 0 mm 0 mps 712 mmHg 90%
    05:00 +9°C° 0 mm 0 mps 712 mmHg 89%
    06:00 +10°C° 0 mm 0 mps 712 mmHg 88%
    07:00 +12°C° 0 mm 0 mps 713 mmHg 83%
    08:00 +13°C° 0 mm 0 mps 713 mmHg 77%
    09:00 +15°C° 0 mm 0 mps 713 mmHg 72%
    10:00 +18°C° 0.2 mm 1 mps 713 mmHg 69%
    11:00 +18°C° 0.2 mm 2 mps 713 mmHg 67%
    12:00 +19°C° 0.2 mm 2 mps 713 mmHg 64%
    13:00 +18°C° 0.6 mm 3 mps 713 mmHg 67%
    14:00 +18°C° 0.6 mm 3 mps 713 mmHg 70%
    15:00 +18°C° 0.6 mm 3 mps 712 mmHg 72%
    16:00 +16°C° 0.7 mm 3 mps 712 mmHg 78%
    17:00 +15°C° 0.7 mm 2 mps 712 mmHg 83%
    18:00 +13°C° 0.7 mm 2 mps 712 mmHg 88%
    19:00 +12°C° 0 mm 1 mps 712 mmHg 89%
    20:00 +12°C° 0 mm 1 mps 712 mmHg 90%
    21:00 +11°C° 0 mm 1 mps 713 mmHg 90%
    22:00 +11°C° 0 mm 1 mps 712 mmHg 91%
    23:00 +10°C° 0 mm 0 mps 712 mmHg 91%
    Show more